Weather History for Marion, OH

Change the Weather History Date:

Saturday, June 22, 2013

  Actual Average (KDLZ) Record (KDLZ)
Temperature  
Mean Temperature 75 °F -  
Max Temperature 87 °F 80 °F 98 °F (1988)
Min Temperature 64 °F 58 °F 40 °F (1963)
Cooling Degree Days 10    
Growing Degree Days 25 (Base 50)    
Moisture  
Dew Point 65 °F    
Average Humidity 70    
Maximum Humidity 90    
Minimum Humidity 53    
Precipitation  
Precipitation 0.00 in - - ()
Sea Level Pressure  
Sea Level Pressure 30.12 in    
Wind  
Wind Speed 7 mph (SSW)    
Max Wind Speed 14 mph    
Max Gust Speed 20 mph    
Visibility 6 miles    
Events      
Averages and records for this station are not official NWS values.
T = Trace of Precipitation, MM = Missing Value Source: NWS Daily Summary

Daily Weather History Graph

Daily Weather History Graph

Search for Another Location

Airport:

Trip Planner

Search our weather history database for the weather conditions in past years. The results will help you decide how hot, cold, wet, or windy it might be!

Date:

Astronomy

Jun. 22, 2013 Rise Set
Actual Time 6:01 AM EDT 9:06 PM EDT
Civil Twilight 5:28 AM EDT 9:40 PM EDT
Nautical Twilight 4:45 AM EDT 10:22 PM EDT
Astronomical Twilight 3:55 AM EDT 11:12 PM EDT
Moon 8:20 PM EDT (6/22) 5:13 AM EDT (6/22)
Length of Visible Light 16h 11m
Length of Day
15h 05m
Waxing Gibbous, 99% of the Moon is Illuminated
Jun 22
Waxing Gibbous
Jun 23
Full
Jun 30
Last Quarter
Jul 8
New
Jul 15
First Quarter

Hourly Weather History & Observations

Time (EDT) Temp. Heat Index Dew Point Humidity Pressure Visibility Wind Dir Wind Speed Gust Speed Precip Events Conditions
12:53 AM 69.1 °F - 60.1 °F 73% 30.14 in 7.0 mi South 4.6 mph - N/A   Clear
1:53 AM 66.9 °F - 60.1 °F 79% 30.15 in 7.0 mi SSE 5.8 mph - N/A   Clear
2:53 AM 66.0 °F - 60.1 °F 81% 30.14 in 6.0 mi South 3.5 mph - N/A   Haze
3:53 AM 66.0 °F - 60.1 °F 81% 30.12 in 6.0 mi South 6.9 mph - N/A   Haze
4:53 AM 64.9 °F - 60.1 °F 84% 30.12 in 5.0 mi South 5.8 mph - N/A   Haze
5:53 AM 64.9 °F - 60.1 °F 84% 30.12 in 5.0 mi South 6.9 mph - N/A   Haze
6:53 AM 64.9 °F - 62.1 °F 90% 30.13 in 4.0 mi SSW 4.6 mph - N/A   Clear
7:53 AM 70.0 °F - 64.0 °F 81% 30.15 in 5.0 mi SSW 6.9 mph - N/A   Haze
8:53 AM 75.0 °F - 66.9 °F 76% 30.15 in 6.0 mi SSW 6.9 mph - N/A   Haze
9:53 AM 78.1 °F - 66.9 °F 68% 30.16 in 6.0 mi SW 9.2 mph - N/A   Haze
10:53 AM 81.0 °F 84.1 °F 69.1 °F 67% 30.15 in 6.0 mi SSW 11.5 mph - N/A   Haze
11:53 AM 84.0 °F 87.0 °F 68.0 °F 58% 30.15 in 6.0 mi SW 8.1 mph - N/A   Haze
12:53 PM 82.9 °F 85.4 °F 66.9 °F 58% 30.15 in 6.0 mi WSW 12.7 mph 19.6 mph N/A   Haze
1:53 PM 73.9 °F - 63.0 °F 68% 30.15 in 9.0 mi South 10.4 mph - 0.00 in   Mostly Cloudy
2:53 PM 82.9 °F 85.4 °F 66.9 °F 58% 30.12 in 8.0 mi South 9.2 mph - N/A   Clear
3:53 PM 84.9 °F 87.6 °F 66.9 °F 55% 30.10 in 7.0 mi SSW 13.8 mph - N/A   Clear
4:53 PM 86.0 °F 88.8 °F 66.9 °F 53% 30.06 in 7.0 mi SW 12.7 mph - N/A   Clear
5:53 PM 86.0 °F 89.4 °F 68.0 °F 55% 30.05 in 6.0 mi SSW 12.7 mph - N/A   Haze
6:53 PM 84.0 °F 86.5 °F 66.9 °F 56% 30.06 in 6.0 mi SW 8.1 mph - N/A   Haze
7:40 PM 82.4 °F 84.6 °F 66.2 °F 58% 30.08 in 7.0 mi South 10.4 mph - N/A   Partly Cloudy
7:53 PM 81.0 °F 83.3 °F 66.9 °F 62% 30.06 in 6.0 mi South 9.2 mph - N/A   Haze
8:53 PM 78.1 °F - 66.0 °F 66% 30.08 in 6.0 mi SSW 10.4 mph - N/A   Haze
9:53 PM 73.9 °F - 66.0 °F 76% 30.09 in 7.0 mi SW 4.6 mph - N/A   Clear
10:53 PM 73.9 °F - 64.9 °F 73% 30.10 in 7.0 mi SW 5.8 mph - N/A   Scattered Clouds
11:53 PM 72.0 °F - 64.9 °F 78% 30.10 in 6.0 mi SSW 4.6 mph - N/A   Haze